Weather in Agvali

Russia / Republic of Dagestan     42°32′27″N   46°07′20″E
temp.,
°C
wind,
m/s
gust,
m/s
humid.,
%
clouds,
%
prec.,
mm/h
press.,
hPa
HPBL,
m
15 april, thu
thu1500:00−2sw33825 0.0 101981
03:00−3ssw34734 0.0 102097
06:00−2ssw33675 0.0 1021116
09:00+4ssw33390 0.0 10171027
12:00+7sw334199 0.0 10152044
15:00+8wsw224197 0.1 10151900
18:00+5w125995 0.2 1016163
21:00+1ssw1174100 0.3 101922
16 april, fri
fri1600:000ssw336694 0.0 102055
03:000ssw336488 0.0 102149
06:000ssw336346 0.0 102178
09:00+6ssw234951 0.0 10181275
12:00+8sw345383 0.8 10171446
15:00+8sw345231 2.5 10171438
18:00+6sw23625 0.4 1018343
21:00+2ssw448312 0.4 102195
17 april, sat
sat1700:00+1ssw449014 0.0 1023100
03:00+1ssw449091 0.0 1022109
06:00+1ssw458360 0.0 1021121
09:00+8sw3449100 0.0 1018862
12:00+12sw2644100 0.0 10161921
15:00+11sw2450100 0.1 10161372
18:00+6nnw117696 0.1 1019181
21:00+4sw1285100 0.1 1020121
18 april, sun
sun1800:00+4ssw4589100 0.0 1020182
03:00+4ssw4590100 0.0 1019159
06:00+4ssw3489100 0.0 1019248
09:00+6ssw4580100 0.3 1017505
12:00+8ssw5681100 0.1 1016675
15:00+11ssw455720 0.1 10131349
18:00+9ssw346919 0.0 1014410
21:00+5w129089 0.1 101892
19 april, mon
mon1900:00+6s2283100 0.1 1017106
03:00+4ssw228498 0.1 101723
06:00+4ssw228198 0.0 101739
09:00+10ssw23555 0.0 10151145
12:00+13ssw3345100 0.1 10131996
15:00+10ssw556891 0.3 1014970
18:00+8ssw4575100 0.2 1015595
21:00+6ssw4584100 0.2 1015122